This demonstration page uses our WeatherBlox Daily Observations layout. Learn more.

Left ArrowRight Arrow

34.16533, -84.80231

Hourly Observations for February 11, 2022

Temp ( °F °C ) Dew Point ( °F °C ) Humidity (%) Winds ( mph kmh ) Pressure ( in mb ) Visibility ( mi km ) Precip ( " mm )
12:15 am 00:15 Clear 37 3 32 0 81 81 Calm 30.08 1019 10 16 0.00 0.00
12:35 am 00:35 Clear 37 3 32 0 81 81 Calm 30.08 1019 10 16 0.00 0.00
12:55 am 00:55 Clear 37 3 32 0 81 81 Calm 30.08 1019 10 16 0.00 0.00
1:15 am 01:15 Clear 37 3 32 0 81 81 Calm 30.08 1019 10 16 0.00 0.00
1:35 am 01:35 Clear 37 3 32 0 81 81 Calm 30.08 1019 10 16 0.00 0.00
1:55 am 01:55 Partly Cloudy 37 3 32 0 81 81 Calm 30.08 1019 10 16 0.00 0.00
2:15 am 02:15 Cloudy 37 3 32 0 81 81 Calm 30.08 1019 10 16 0.00 0.00
2:35 am 02:35 Cloudy 36 2 32 0 87 87 Calm 30.07 1018 10 16 0.00 0.00
2:55 am 02:55 Cloudy 36 2 32 0 87 87 Calm 30.07 1018 10 16 0.00 0.00
3:15 am 03:15 Cloudy 36 2 32 0 87 87 Calm 30.06 1018 10 16 0.00 0.00
3:35 am 03:35 Cloudy 36 2 32 0 87 87 Calm 30.06 1018 10 16 0.00 0.00
3:55 am 03:55 Cloudy 36 2 32 0 87 87 Calm 30.06 1018 10 16 0.00 0.00
4:15 am 04:15 Cloudy 34 1 32 0 93 93 Calm 30.07 1018 10 16 0.00 0.00
4:35 am 04:35 Cloudy 34 1 32 0 93 93 Calm 30.06 1018 10 16 0.00 0.00
4:55 am 04:55 Mostly Cloudy 34 1 32 0 93 93 Calm 30.07 1018 10 16 0.00 0.00
5:15 am 05:15 Partly Cloudy 34 1 32 0 93 93 Calm 30.07 1018 10 16 0.00 0.00
5:35 am 05:35 Partly Cloudy 34 1 32 0 93 93 Calm 30.08 1018 9 14 0.00 0.00
5:55 am 05:55 Mostly Cloudy 34 1 32 0 93 93 Calm 30.08 1018 10 16 0.00 0.00
6:15 am 06:15 Partly Cloudy 32 0 32 0 100 100 Calm 30.09 1019 10 16 0.00 0.00
6:35 am 06:35 Mostly Cloudy 34 1 32 0 93 93 Calm 30.09 1019 9 14 0.00 0.00
6:55 am 06:55 Cloudy 34 1 32 0 93 93 Calm 30.09 1019 10 16 0.00 0.00
7:15 am 07:15 Partly Cloudy 34 1 32 0 93 93 Calm 30.10 1019 10 16 0.00 0.00
7:35 am 07:35 Sunny 32 0 32 0 100 100 Calm 30.11 1020 9 14 0.00 0.00
7:55 am 07:55 Sunny 34 1 32 0 93 93 Calm 30.11 1020 9 14 0.00 0.00
8:15 am 08:15 Sunny 34 1 32 0 93 93 ENE 6 9 30.12 1020 9 14 0.00 0.00
8:35 am 08:35 Sunny 36 2 34 1 93 93 Calm 30.12 1020 9 14 0.00 0.00
8:55 am 08:55 Sunny 39 4 34 1 81 81 Calm 30.12 1020 10 16 0.00 0.00
9:15 am 09:15 Sunny 41 5 37 3 87 87 Calm 30.11 1020 9 14 0.00 0.00
9:35 am 09:35 Sunny 45 7 37 3 76 76 E 3 6 30.11 1020 10 16 0.00 0.00
9:55 am 09:55 Sunny 48 9 37 3 66 66 ENE 3 6 30.10 1019 10 16 0.00 0.00
10:15 am 10:15 Sunny 52 11 37 3 58 58 Calm 30.09 1019 10 16 0.00 0.00
10:35 am 10:35 Sunny 57 14 36 2 44 44 SW 6 9 30.08 1019 10 16 0.00 0.00
10:55 am 10:55 Sunny 61 16 36 2 39 39 VRB 7 11 30.07 1018 10 16 0.00 0.00
11:15 am 11:15 Sunny 63 17 36 2 37 37 VRB 6 9 30.07 1018 10 16 0.00 0.00
11:35 am 11:35 Sunny 64 18 34 1 32 32 SSW 12 19 30.07 1018 10 16 0.00 0.00
11:55 am 11:55 Sunny 64 18 34 1 32 32 SW 8 13 30.06 1018 10 16 0.00 0.00
12:15 pm 12:15 Sunny 66 19 32 0 28 28 SW 7 11 30.05 1018 10 16 0.00 0.00
12:35 pm 12:35 Sunny 66 19 32 0 28 28 SW 7 11 30.04 1017 10 16 0.00 0.00
12:55 pm 12:55 Sunny 66 19 32 0 28 28 WSW 12 19 30.03 1017 10 16 0.00 0.00
1:15 pm 13:15 Sunny 66 19 32 0 28 28 WSW 9 15 30.02 1017 10 16 0.00 0.00
1:35 pm 13:35 Sunny 66 19 30 -1 26 26 WSW 12 19 30.01 1016 10 16 0.00 0.00
1:55 pm 13:55 Sunny 68 20 30 -1 24 24 SW 8 13 30.00 1016 10 16 0.00 0.00
2:15 pm 14:15 Sunny 68 20 30 -1 24 24 WSW 9 15 29.98 1015 10 16 0.00 0.00
2:35 pm 14:35 Sunny 68 20 30 -1 24 24 WSW 10 17 29.97 1015 10 16 0.00 0.00
2:55 pm 14:55 Sunny 68 20 30 -1 24 24 WSW 8 13 29.96 1015 10 16 0.00 0.00
3:15 pm 15:15 Sunny 70 21 28 -2 21 21 SSW 9 15 29.95 1014 10 16 0.00 0.00
3:35 pm 15:35 Sunny 70 21 30 -1 23 23 SW 6 9 29.94 1014 8 13 0.00 0.00
3:55 pm 15:55 Sunny 70 21 30 -1 23 23 SW 8 13 29.94 1014 10 16 0.00 0.00
4:15 pm 16:15 Sunny 70 21 30 -1 23 23 VRB 7 11 29.94 1014 10 16 0.00 0.00
4:35 pm 16:35 Sunny 68 20 30 -1 24 24 S 13 20 29.94 1014 10 16 0.00 0.00
4:55 pm 16:55 Sunny 68 20 30 -1 24 24 S 10 17 29.95 1014 10 16 0.00 0.00
5:15 pm 17:15 Sunny 66 19 28 -2 24 24 S 10 17 29.96 1014 10 16 0.00 0.00
5:35 pm 17:35 Sunny 66 19 28 -2 24 24 VRB 7 11 29.96 1014 10 16 0.00 0.00
5:55 pm 17:55 Sunny 64 18 28 -2 26 26 S 6 9 29.97 1015 10 16 0.00 0.00
6:15 pm 18:15 Sunny 63 17 28 -2 27 27 SSW 7 11 29.97 1015 10 16 0.00 0.00
6:35 pm 18:35 Clear 63 17 30 -1 30 30 S 6 9 29.98 1015 10 16 0.00 0.00
6:55 pm 18:55 Clear 61 16 30 -1 31 31 S 6 9 29.99 1016 10 16 0.00 0.00
7:15 pm 19:15 Partly Cloudy 61 16 30 -1 31 31 S 7 11 30.00 1016 10 16 0.00 0.00
7:35 pm 19:35 Mostly Cloudy 61 16 30 -1 31 31 S 6 9 30.00 1016 10 16 0.00 0.00
7:55 pm 19:55 Cloudy 59 15 30 -1 34 34 VRB 3 6 30.01 1016 10 16 0.00 0.00
8:15 pm 20:15 Cloudy 55 13 32 0 41 41 Calm 30.02 1017 10 16 0.00 0.00
8:35 pm 20:35 Cloudy 54 12 32 0 44 44 Calm 30.02 1017 10 16 0.00 0.00
8:55 pm 20:55 Cloudy 55 13 30 -1 38 38 Calm 30.03 1017 10 16 0.00 0.00
9:15 pm 21:15 Cloudy 57 14 30 -1 36 36 SSW 3 6 30.03 1017 10 16 0.00 0.00
9:35 pm 21:35 Cloudy 52 11 34 1 50 50 Calm 30.05 1017 10 16 0.00 0.00
9:55 pm 21:55 Mostly Cloudy 52 11 32 0 47 47 Calm 30.05 1017 10 16 0.00 0.00
10:15 pm 22:15 Partly Cloudy 52 11 32 0 47 47 Calm 30.05 1017 10 16 0.00 0.00
10:35 pm 22:35 Partly Cloudy 48 9 34 1 58 58 Calm 30.05 1018 10 16 0.00 0.00
10:55 pm 22:55 Mostly Cloudy 48 9 34 1 58 58 Calm 30.05 1018 10 16 0.00 0.00
11:15 pm 23:15 Partly Cloudy 46 8 34 1 62 62 Calm 30.06 1018 10 16 0.00 0.00
11:35 pm 23:35 Clear 46 8 34 1 62 62 Calm 30.07 1018 10 16 0.00 0.00
11:55 pm 23:55 Clear 45 7 34 1 66 66 Calm 30.07 1018 10 16 0.00 0.00

Powered by AerisWeather